Flag for Cuba Weather past 2 weeks in Holguín, Cuba

Now
84 °F

Scattered clouds.


Feels Like: 92 °F
Forecast: 75 / 92 °F
Wind: 6 mph from Southeast

Location: Holguin Civ / Mil

Current Time: Jul 28, 2014 at 11:03:09 AM

Latest Report: Jul 28, 2014 at 9:51 AM


Visibility: 6 mi

Pressure: 30.07 "Hg

Humidity: 74%

Dew point: 75 °F

Location of HolguínLocation

Historic Weather in Holguín — Graph

°F

Holguín temperature yesterday

Maximum temperature yesterday: 97 °F (at 2:51 PM)
Minimum temperature yesterday: 72 °F (at 8:50 PM)
Average temperature yesterday: 83 °F

Past Weeks' High & Low Weather Summary

 TemperatureHumidityPressure
High97 °F (Jul 27, 2:51 PM)94% (Jul 16, 10:52 PM)30.15 "Hg (Jul 16, 10:52 PM)
Low70 °F (Jul 16, 7:50 PM)34% (Jul 15, 3:51 PM)29.92 "Hg (Jul 15, 3:51 PM)
Average82 °F72%30.02 "Hg
* Reported Jul 13 9:50 AM — Jul 28 9:51 AM, Holguín, Weather by CustomWeather, © 2014

Note: Actual official high and low records may vary slightly from our data, if they occured in-between our weather recording intervals... More about our weather records

Advertising

Holguín weather history for previous 24 hours

 ConditionsComfort  
Time TempWeatherWind HumidityBarometerVisibility
9:51 AM
Jul 28
84 °FScattered clouds.6 mph74%30.07 "Hg6 mi
8:52 AM77 °FPassing clouds.3 mph89%30.07 "Hg6 mi
7:51 AM73 °FFog.2 mph94%30.07 "Hg4 mi
6:50 AM72 °FFog.1 mph88%30.04 "Hg3 mi
5:51 AM72 °FFog.1 mph88%30.04 "Hg4 mi
4:51 AM70 °FFog.1 mph94%30.01 "Hg4 mi
3:50 AM70 °FFog.2 mph94%30.04 "Hg5 mi
2:50 AM72 °FClear.1 mph88%30.04 "Hg10 mi
1:50 AM72 °FClear.1 mph94%30.07 "Hg10 mi
12:51 AM72 °FPassing clouds.2 mph94%30.09 "HgN/A
11:51 PM
Jul 27
73 °FOvercast.2 mph89%30.12 "HgN/A
9:50 PM73 °FOvercast.7 mph83%30.09 "Hg6 mi
8:50 PM72 °FLight rain. Mostly cloudy.5 mph88%N/A5 mi
6:50 PM73 °FThunderstorms. Partly sunny.22 mph78%30.09 "Hg4 mi
5:51 PM90 °FScattered clouds.18 mph59%29.98 "Hg6 mi
4:52 PM91 °FScattered clouds.13 mph59%29.98 "Hg6 mi
3:50 PM95 °FScattered clouds.7 mph50%30.01 "HgN/A
2:51 PM97 °FScattered clouds.5 mph39%30.01 "Hg6 mi
1:50 PM93 °FScattered clouds.5 mph44%30.04 "Hg6 mi
12:53 PM93 °FPassing clouds.6 mph47%30.04 "Hg6 mi
11:51 AM90 °FPassing clouds.6 mph52%30.04 "Hg6 mi
Weather by CustomWeather, © 2014

See weather overviewHow to use our weather pages